Regional Weather Roundup
Issued by NWS

Home | Current Version | Previous Version | Graphics & Text | Print | Product List | Glossary On
Versions: 1 2 3 4 5 6 7 8 9 10 11 12 13 14 15 16 17 18 19 20 21 22 23 24 25 26 27 28 29 30 31 32 33 34 35 36 37 38 39 40 41 42 43 44 45 46 47 48 49 50
000
ASUS43 KOAX 270002
RWRNE

WEATHER ROUNDUP FOR NEBRASKA
NATIONAL WEATHER SERVICE OMAHA NE
700 PM CDT THU MAY 26 2016

NOTES: SATELLITE DATA IS BEING USED TO AUGMENT CLOUD COVER ABOVE
       12000 FEET.
       "FAIR" INDICATES FEW OR NO CLOUDS BELOW 12,000 FEET WITH NO
       SIGNIFICANT WEATHER AND/OR OBSTRUCTIONS TO VISIBILITY.

  * THESE STATIONS DO NOT REPORT WEATHER SUCH AS RAIN...SNOW OR FOG.

NEZ001>004-019>022-054>056-270100-
NEBRASKA PANHANDLE

CITY           SKY/WX    TMP DP  RH WIND       PRES   REMARKS
SCOTTSBLUFF    CLOUDY    63  41  44 NW13      29.86S
6HR MIN TEMP:  62; 6HR MAX TEMP:  70;

ALLIANCE       CLOUDY    62  41  46 N15G23    29.84F
6HR MIN TEMP:  60; 6HR MAX TEMP:  71;

CHADRON        CLOUDY    67  48  50 SW7       29.83S
6HR MIN TEMP:  63; 6HR MAX TEMP:  72;

SIDNEY         CLOUDY    60  41  49 N17       29.85F
6HR MIN TEMP:  58; 6HR MAX TEMP:  70; 6HR PCP:  0.01;

$$

NEZ057>060-069>072-079>082-270100-
SOUTHWEST NEBRASKA

CITY           SKY/WX    TMP DP  RH WIND       PRES   REMARKS
NORTH PLATTE   CLOUDY    74  48  39 E14       29.74F
6HR MIN TEMP:  72; 6HR MAX TEMP:  79;

IMPERIAL       LGT RAIN  64  49  57 NE13      29.72F
6HR MIN TEMP:  64; 6HR MAX TEMP:  77; 6HR PCP:  0.05;

LEXINGTON      CLOUDY    71  58  64 E12       29.74R
MCCOOK         PTSUNNY   69  58  67 E21G28    29.62F THUNDER
6HR MIN TEMP:  68; 6HR MAX TEMP:  78; 6HR PCP:  0.03;

$$

NEZ005>010-023>029-035>040-094-270100-
NORTH CENTRAL NEBRASKA

CITY           SKY/WX    TMP DP  RH WIND       PRES   REMARKS
VALENTINE      PTSUNNY   76  46  34 N9        29.77S
6HR MIN TEMP:  70; 6HR MAX TEMP:  80;

AINSWORTH      MOSUNNY   73  51  47 E7        29.79R
BROKEN BOW     CLOUDY    74  49  41 E10G20    29.75S
6HR MIN TEMP:  71; 6HR MAX TEMP:  78;

ORD            CLOUDY    73  52  47 E13       29.73F
6HR MIN TEMP:  68; 6HR MAX TEMP:  79;

$$

NEZ041-046>049-061>064-073>077-083>087-270100-
SOUTH CENTRAL NEBRASKA

CITY           SKY/WX    TMP DP  RH WIND       PRES   REMARKS
GRAND ISLAND   CLOUDY    62  55  77 SW8       29.73F
6HR MIN TEMP:  62; 6HR MAX TEMP:  77; 6HR PCP: TRACE;

HASTINGS       CLOUDY    62  56  80 S9G18     29.73R
6HR MIN TEMP:  60; 6HR MAX TEMP:  78; 6HR PCP:  0.23;

KEARNEY *      CLOUDY    64  55  72 SE12      29.72F
YORK           TSTM      63  59  88 SE10      29.84F
$$

NEZ011>018-030>034-042>045-270100-
NORTHEAST NEBRASKA

CITY           SKY/WX    TMP DP  RH WIND       PRES   REMARKS
NORFOLK        CLOUDY    71  57  61 E9        29.81R
6HR MIN TEMP:  71; 6HR MAX TEMP:  80;

ALBION         CLOUDY    73  55  54 E18G24    29.77F
BLAIR          LGT RAIN  69  55  62 E24G36    29.77R
FREMONT        CLOUDY    66  57  71 S7        29.84R
TEKAMAH        CLOUDY    69  56  62 SE21G26   29.79S
6HR MIN TEMP:  69; 6HR MAX TEMP:  84;

$$

NEZ050>053-065>068-078-088>093-270100-
SOUTHEAST NEBRASKA

CITY           SKY/WX    TMP DP  RH WIND       PRES   REMARKS
LINCOLN        RAIN      63  60  90 SW6       29.87R FOG
6HR MIN TEMP:  63; 6HR MAX TEMP:  83; 6HR PCP:  0.51;

OMAHA EPPLEY   LGT RAIN  65  58  78 E33G44    29.83R
6HR MIN TEMP:  65; 6HR MAX TEMP:  84; 6HR PCP:  0.30;

FALLS CITY     LGT RAIN  66  62  87 N13       29.82R
6HR MIN TEMP:  65; 6HR MAX TEMP:  75; 6HR PCP:  0.10;

PLATTSMOUTH    LGT RAIN  65  60  83 E15G21    29.85F
$$

NEZ044-045-051>053-067-270100-
OMAHA AREA

CITY           SKY/WX    TMP DP  RH WIND       PRES   REMARKS
OMAHA EPPLEY   LGT RAIN  65  58  78 E33G44    29.83R
6HR MIN TEMP:  65; 6HR MAX TEMP:  84; 6HR PCP:  0.30;

BLAIR          LGT RAIN  69  55  62 E24G36    29.77R
FREMONT        CLOUDY    66  57  71 S7        29.84R
PLATTSMOUTH    LGT RAIN  65  60  83 E15G21    29.85F
$$




USA.gov is the U.S. government's official web portal to all federal, state and local government web resources and services.